Zurück zum Katalog

CZ-6A DEB

AktivPO
NORAD 61145·DEBRIS·🇨🇳 China

Gestartet Aug 6, 2024 von Taiyuan Satellite Launch Center

Loading…

Nächste Überflüge (nächste 24 Stunden)

TLE

AktuellSource: Space-Track

Epoche: Sep 14, 2026, 22:22 UTC

1 61145U 24140QP  26257.93247910  .00026085  00000-0  29792-2 0  9997
2 61145  88.9292 251.5054 0044790 273.3350  86.2753 14.85218067110506

Verfolge CZ-6A DEB in Echtzeit mit AllMySat

Download on the App Store